Tracking 28794 objects as of 19-Apr-2024
HD Live streaming from Space Station
objects crossing your sky now

ONEWEB-0430

Track ONEWEB-0430 now!
10-day predictions
ONEWEB-0430 is classified as:


NORAD ID: 50501
Int'l Code: 2021-132AJ
Perigee: 1,195.2 km
Apogee: 1,198.5 km
Inclination: 87.9 °
Period: 109.2 minutes
Semi major axis: 7567 km
RCS: Unknown
Launch date: December 27, 2021
Source: United Kingdom (UK)
Launch site: TYURATAM MISSILE AND SPACE COMPLEX (TTMTR)
Your satellite tracking list
Your tracking list is empty




NASA's NSSDC Master Catalog

Two Line Element Set (TLE):
1 50501U 21132AJ  24110.59083081  .00000102  00000-0  22640-3 0  9992
2 50501  87.9129 132.4459 0002187 104.3859 255.7516 13.18687957117695
Source of the keplerian elements: AFSPC